FW1939 Weather Reports


Display with metric or nautical units.
time (UTC)temp
F
wind
direction
speed
MPH
gust
MPH
rain 1hr
in
rain 24hr
in
rain mn
in
humidity
%
barometer
mb
20260508122118 51 323 0.0 0.0 0.00 0.00 0.00 86 1016.4
20260508121550 51 323 0.0 0.0 0.00 0.00 0.00 85 1016.4
20260508121048 51 323 0.0 0.0 0.00 0.00 0.00 85 1016.6
20260508120527 51 323 0.0 0.0 0.00 0.00 0.00 85 1016.5
20260508120029 51 323 0.0 0.0 0.00 0.00 0.00 84 1016.4
20260508115527 51 323 0.0 0.0 0.00 0.00 0.00 84 1016.4
20260508115017 51 323 0.0 0.0 0.00 0.00 0.00 84 1016.4
20260508114515 51 323 0.0 0.0 0.00 0.00 0.00 84 1016.5
20260508113958 52 323 0.0 0.0 0.00 0.00 0.00 84 1016.4
20260508113423 52 323 0.0 0.0 0.00 0.00 0.00 83 1016.4
20260508113143 52 323 0.0 0.0 0.00 0.00 0.00 82 1016.5
20260508112418 53 323 0.0 0.0 0.00 0.00 0.00 82 1016.4
20260508111910 53 323 0.0 0.0 0.00 0.00 0.00 81 1016.3
20260508111352 53 298 0.0 0.0 0.00 0.00 0.00 81 1016.4
20260508110846 53 298 0.0 0.0 0.00 0.00 0.00 81 1016.4
20260508110330 53 298 0.0 0.0 0.00 0.00 0.00 80 1016.4
20260508105815 53 298 0.0 0.0 0.00 0.00 0.00 80 1016.4
20260508105308 54 298 0.0 0.0 0.00 0.00 0.00 80 1016.4
20260508104756 54 298 0.0 0.0 0.00 0.00 0.00 79 1016.4
20260508104253 54 298 0.0 0.0 0.00 0.00 0.00 79 1016.5
20260508103721 54 298 0.0 0.0 0.00 0.00 0.00 78 1016.5
20260508103223 54 298 0.0 0.0 0.00 0.00 0.00 78 1016.5
20260508103159 54 298 0.0 0.0 0.00 0.00 0.00 78 1016.4
20260508102200 54 298 0.0 0.0 0.00 0.00 0.00 78 1016.4
20260508101635 54 298 0.0 0.0 0.00 0.00 0.00 77 1016.4
20260508101130 54 298 0.0 0.0 0.00 0.00 0.00 77 1016.4
20260508100630 54 298 0.0 0.0 0.00 0.00 0.00 77 1016.4
20260508100122 54 298 0.0 0.0 0.00 0.00 0.00 78 1016.4
20260508100107 54 298 0.0 0.0 0.00 0.00 0.00 77 1016.3
20260508095120 54 298 0.0 0.0 0.00 0.00 0.00 77 1016.3
20260508094539 54 298 0.0 0.0 0.00 0.00 0.00 77 1016.3
20260508094026 54 298 0.0 0.0 0.00 0.00 0.00 76 1016.3
20260508093512 54 298 0.0 0.0 0.00 0.00 0.00 76 1016.3
20260508093000 54 298 0.0 0.0 0.00 0.00 0.00 76 1016.3
20260508092455 54 298 0.0 0.0 0.00 0.00 0.00 76 1016.3
20260508091939 54 298 0.0 0.0 0.00 0.00 0.00 75 1016.3
20260508091433 55 298 0.0 0.0 0.00 0.00 0.00 75 1016.3
20260508090927 55 298 0.0 0.0 0.00 0.00 0.00 74 1016.3
20260508090422 55 298 0.0 0.0 0.00 0.00 0.00 74 1016.2
20260508085920 55 298 0.0 0.0 0.00 0.00 0.00 74 1016.2
20260508085344 55 298 0.0 0.0 0.00 0.00 0.00 73 1016.3
20260508084817 56 298 0.0 0.0 0.00 0.00 0.00 73 1016.3
20260508084312 56 298 0.0 0.0 0.00 0.00 0.00 72 1016.4
20260508083733 56 298 0.0 0.0 0.00 0.00 0.00 71 1016.4
20260508083203 57 298 0.0 0.0 0.00 0.00 0.00 70 1016.6
20260508082656 57 298 0.0 0.0 0.00 0.00 0.00 69 1016.5
20260508082128 58 298 0.0 0.0 0.00 0.00 0.00 68 1016.5
20260508081618 58 298 0.0 0.0 0.00 0.00 0.00 68 1016.5
20260508081113 58 298 0.0 0.0 0.00 0.00 0.00 68 1016.5
20260508080612 58 298 0.0 0.0 0.00 0.00 0.00 66 1016.5
20260508080311 58 298 0.0 0.0 0.00 0.00 0.00 66 1016.6
20260508075535 58 298 0.0 0.0 0.00 0.00 0.00 67 1016.6
20260508075028 58 298 0.0 0.0 0.00 0.00 0.00 68 1016.6
20260508074529 58 298 0.0 0.0 0.00 0.00 0.00 70 1016.6
20260508074023 58 298 0.0 0.0 0.00 0.00 0.00 69 1016.7
20260508073518 59 298 0.0 0.0 0.00 0.00 0.00 68 1016.6
20260508073234 59 298 0.0 2.0 0.00 0.00 0.00 67 1016.6
20260508072458 59 298 0.0 2.0 0.00 0.00 0.00 67 1016.6
20260508071927 59 298 0.0 0.0 0.00 0.00 0.00 68 1016.6
20260508071418 59 298 0.0 0.0 0.00 0.00 0.00 69 1016.6
20260508070918 59 298 0.0 0.0 0.00 0.00 0.00 70 1016.6
20260508070621 60 298 0.0 0.0 0.00 0.00 0.00 69 1016.6
20260508065857 60 298 0.0 0.0 0.00 0.00 0.00 69 1016.6
20260508065337 60 298 0.0 0.0 0.00 0.00 0.00 69 1016.5
20260508064804 60 298 0.0 0.0 0.00 0.00 0.00 69 1016.5
20260508064245 60 298 0.0 0.0 0.00 0.00 0.00 69 1016.4
20260508063739 60 298 0.0 0.0 0.00 0.00 0.00 69 1016.3
20260508063226 61 5 0.0 0.0 0.00 0.00 0.00 67 1016.5
20260508062720 61 5 0.0 0.0 0.00 0.00 0.00 66 1016.5
20260508062143 62 5 0.0 0.0 0.00 0.00 0.00 65 1016.5
20260508061641 62 5 0.0 0.0 0.00 0.00 0.00 66 1016.5
20260508061115 62 5 0.0 0.0 0.00 0.00 0.00 66 1016.5
20260508060551 62 5 0.0 0.0 0.00 0.00 0.00 66 1016.6
20260508060314 63 5 0.0 2.0 0.00 0.00 0.00 66 1016.5
20260508055800 63 27 0.0 2.0 0.00 0.00 0.00 66 1016.5
20260508055511 63 181 0.0 0.0 0.00 0.00 0.00 69 1016.4
20260508054521 62 181 0.0 0.0 0.00 0.00 0.00 72 1016.3
20260508053956 61 181 0.0 0.0 0.00 0.00 0.00 73 1016.2
20260508053447 62 181 0.0 0.0 0.00 0.00 0.00 74 1016.2
20260508053200 62 202 0.0 0.0 0.00 0.00 0.00 73 1016.2
20260508052429 62 202 0.0 0.0 0.00 0.00 0.00 73 1016.2
20260508051915 62 202 0.0 0.0 0.00 0.00 0.00 72 1016.3
20260508051400 62 202 0.0 0.0 0.00 0.00 0.00 72 1016.3
20260508050851 63 202 0.0 0.0 0.00 0.00 0.00 71 1016.3
20260508050347 62 202 0.0 0.0 0.00 0.00 0.00 71 1016.2
20260508045813 63 202 0.0 0.0 0.00 0.00 0.00 71 1016.2
20260508045310 63 202 0.0 2.0 0.00 0.00 0.00 70 1016.3
20260508044800 63 202 0.0 2.0 0.00 0.00 0.00 70 1016.1
20260508044251 63 221 0.0 2.0 0.00 0.00 0.00 70 1016.1
20260508043741 64 221 0.0 2.0 0.00 0.00 0.00 69 1015.9
20260508043235 64 221 0.0 2.0 0.00 0.00 0.00 68 1016.0
20260508042719 64 198 0.0 0.0 0.00 0.00 0.00 68 1016.0
20260508042218 64 198 0.0 2.0 0.00 0.00 0.00 67 1015.9
20260508042205 65 198 0.0 2.0 0.00 0.00 0.00 66 1015.8
20260508041219 65 198 0.0 2.0 0.00 0.00 0.00 66 1015.8
20260508040716 65 199 0.0 2.0 0.00 0.00 0.00 65 1015.9
20260508040149 66 198 0.0 2.0 0.00 0.00 0.00 64 1015.7
20260508035914 66 206 0.0 2.0 0.00 0.00 0.00 64 1015.6
20260508035145 67 183 0.0 2.0 0.00 0.00 0.00 63 1015.6
20260508034641 67 217 0.0 2.0 0.00 0.00 0.00 63 1015.6
20260508034127 67 223 0.0 0.0 0.00 0.00 0.00 63 1015.6
20260508033619 67 223 0.0 2.0 0.00 0.00 0.00 63 1015.5
20260508033116 67 223 0.0 2.0 0.00 0.00 0.00 63 1015.4
20260508032553 67 223 1.0 2.0 0.00 0.00 0.00 62 1015.4
20260508032021 68 227 1.0 2.0 0.00 0.00 0.00 62 1015.5
20260508031519 68 222 0.0 2.0 0.00 0.00 0.00 61 1015.4
20260508031017 69 198 0.0 0.0 0.00 0.00 0.00 61 1015.4
20260508030507 69 198 0.0 2.0 0.00 0.00 0.00 59 1015.5
20260508030400 70 198 0.0 2.0 0.00 0.00 0.00 58 1015.4
20260508025638 70 198 0.0 2.0 0.00 0.00 0.00 57 1015.4
20260508024905 71 198 0.0 2.0 0.00 0.00 0.00 56 1015.4
20260508024328 71 199 1.0 5.0 0.00 0.00 0.00 55 1015.2
20260508023821 71 222 1.0 5.0 0.00 0.00 0.00 55 1015.2
20260508023316 72 203 1.0 5.0 0.00 0.00 0.00 55 1015.1
20260508022810 72 199 2.0 4.0 0.00 0.00 0.00 55 1015.1
20260508022307 72 207 2.0 7.0 0.00 0.00 0.00 54 1015.0
20260508021806 72 190 3.0 7.0 0.00 0.00 0.00 54 1015.0
20260508021739 73 155 3.0 6.0 0.00 0.00 0.00 54 1015.0
20260508020800 73 169 2.0 7.0 0.00 0.00 0.00 54 1014.9
20260508020259 73 208 2.0 7.0 0.00 0.00 0.00 54 1015.0
20260508015757 73 202 1.0 9.0 0.00 0.00 0.00 54 1014.9
20260508015257 73 182 2.0 9.0 0.00 0.00 0.00 54 1014.9
20260508014753 74 147 2.0 7.0 0.00 0.00 0.00 53 1014.9
20260508014250 74 129 2.0 5.0 0.00 0.00 0.00 54 1015.0
20260508013750 74 213 3.0 7.0 0.00 0.00 0.00 53 1015.0
20260508013247 75 226 3.0 8.0 0.00 0.00 0.00 53 1015.0
20260508012742 75 217 3.0 8.0 0.00 0.00 0.00 53 1014.9
20260508012242 75 186 4.0 8.0 0.00 0.00 0.00 52 1014.9
20260508011742 76 205 4.0 8.0 0.00 0.00 0.00 52 1015.0
20260508011235 76 235 4.0 10.0 0.00 0.00 0.00 51 1015.0
20260508010731 76 238 3.0 10.0 0.00 0.00 0.00 49 1015.1
20260508010230 77 223 3.0 7.0 0.00 0.00 0.00 49 1015.1
20260508005732 78 205 3.0 8.0 0.00 0.00 0.00 49 1015.1
20260508005232 78 165 3.0 8.0 0.00 0.00 0.00 49 1015.1
20260508004729 78 250 3.0 7.0 0.00 0.00 0.00 49 1015.2
20260508004227 78 198 4.0 10.0 0.00 0.00 0.00 49 1015.1
20260508003723 78 230 5.0 10.0 0.00 0.00 0.00 50 1015.1
20260508003445 78 232 4.0 10.0 0.00 0.00 0.00 49 1015.2
20260508002726 78 175 4.0 10.0 0.00 0.00 0.00 49 1015.2
20260508002443 78 233 4.0 10.0 0.00 0.00 0.00 49 1015.0
20260508001719 79 196 4.0 10.0 0.00 0.00 0.00 48 1015.2
20260508001221 79 219 4.0 10.0 0.00 0.00 0.00 48 1015.2
20260508000719 79 170 5.0 11.0 0.00 0.00 0.00 48 1015.1
20260508000219 80 213 4.0 11.0 0.00 0.00 0.00 48 1015.1
20260507235715 80 236 4.0 8.0 0.00 0.00 0.00 48 1015.2
20260507235216 80 173 4.0 9.0 0.00 0.00 0.00 48 1015.1
20260507234717 80 184 4.0 9.0 0.00 0.00 0.00 47 1015.2
20260507234217 80 162 4.0 13.0 0.00 0.00 0.00 47 1015.2
20260507233711 80 167 4.0 13.0 0.00 0.00 0.00 47 1015.2
20260507233200 81 192 4.0 10.0 0.00 0.00 0.00 46 1015.2
20260507232647 82 173 4.0 9.0 0.00 0.00 0.00 46 1015.2
20260507232135 82 141 4.0 9.0 0.00 0.00 0.00 45 1015.3
20260507231630 82 143 5.0 12.0 0.00 0.00 0.00 45 1015.4
20260507231131 82 221 5.0 12.0 0.00 0.00 0.00 46 1015.4
20260507230625 82 240 5.0 9.0 0.00 0.00 0.00 45 1015.5
20260507230346 83 225 4.0 9.0 0.00 0.00 0.00 45 1015.5
20260507225624 82 188 4.0 10.0 0.00 0.00 0.00 46 1015.5
20260507225125 83 219 5.0 10.0 0.00 0.00 0.00 45 1015.6
20260507224624 82 202 5.0 10.0 0.00 0.00 0.00 46 1015.7
20260507224123 82 222 4.0 11.0 0.00 0.00 0.00 45 1015.6
20260507223624 82 236 5.0 11.0 0.00 0.00 0.00 46 1015.7
20260507223119 83 188 4.0 10.0 0.00 0.00 0.00 45 1015.8
20260507222829 83 223 4.0 10.0 0.00 0.00 0.00 44 1015.8
20260507222056 83 209 4.0 9.0 0.00 0.00 0.00 45 1015.8
20260507221552 84 217 4.0 9.0 0.00 0.00 0.00 44 1016.0
20260507221053 84 212 5.0 9.0 0.00 0.00 0.00 44 1016.0
20260507220909 84 140 5.0 9.0 0.00 0.00 0.00 44 1016.0
20260507220801 83 166 5.0 11.0 0.00 0.00 0.00 44 1016.0
20260507215547 83 223 5.0 11.0 0.00 0.00 0.00 44 1016.0
20260507215046 84 234 5.0 11.0 0.00 0.00 0.00 44 1016.2
20260507214813 84 193 4.0 11.0 0.00 0.00 0.00 43 1016.2
20260507214045 85 202 3.0 8.0 0.00 0.00 0.00 43 1016.3
20260507213546 86 246 2.0 9.0 0.00 0.00 0.00 42 1016.5
20260507213301 87 246 1.0 9.0 0.00 0.00 0.00 39 1016.7
20260507212528 88 163 1.0 4.0 0.00 0.00 0.00 35 1016.7
20260507212015 86 20 1.0 3.0 0.00 0.00 0.00 38 1016.6
20260507211503 86 324 1.0 4.0 0.00 0.00 0.00 37 1016.6
20260507210950 86 333 1.0 4.0 0.00 0.00 0.00 36 1016.8
20260507210441 87 325 1.0 4.0 0.00 0.00 0.00 37 1016.9
20260507205927 86 319 1.0 5.0 0.00 0.00 0.00 38 1016.7
20260507205415 86 32 1.0 5.0 0.00 0.00 0.00 37 1016.9
20260507204905 87 344 1.0 4.0 0.00 0.00 0.00 38 1017.0
20260507204356 86 325 1.0 5.0 0.00 0.00 0.00 38 1017.1
20260507203843 87 200 1.0 6.0 0.00 0.00 0.00 37 1017.1
20260507203334 85 205 1.0 6.0 0.00 0.00 0.00 40 1017.1
20260507202827 85 27 1.0 2.0 0.00 0.00 0.00 40 1017.2
20260507202318 85 123 1.0 4.0 0.00 0.00 0.00 39 1017.3
20260507201810 84 18 1.0 4.0 0.00 0.00 0.00 40 1017.2
20260507201305 84 9 1.0 5.0 0.00 0.00 0.00 40 1017.3
20260507201017 83 157 1.0 5.0 0.00 0.00 0.00 42 1017.2
20260507200252 84 19 0.0 5.0 0.00 0.00 0.00 40 1017.3
20260507195741 83 246 0.0 4.0 0.00 0.00 0.00 41 1017.3
20260507195241 84 332 0.0 4.0 0.00 0.00 0.00 41 1017.3
20260507194736 83 329 0.0 4.0 0.00 0.00 0.00 43 1017.4
20260507194224 83 128 1.0 6.0 0.00 0.00 0.00 43 1017.3
20260507193724 83 207 0.0 6.0 0.00 0.00 0.00 42 1017.6
20260507193217 82 19 0.0 4.0 0.00 0.00 0.00 45 1017.6
20260507192712 81 345 1.0 4.0 0.00 0.00 0.00 45 1017.6
20260507192209 80 19 1.0 4.0 0.00 0.00 0.00 46 1017.6
20260507191927 80 321 0.0 2.0 0.00 0.00 0.00 45 1017.8
20260507191210 80 0 0.0 2.0 0.00 0.00 0.00 46 1017.8
20260507190702 80 312 1.0 5.0 0.00 0.00 0.00 47 1018.0
20260507190140 79 34 1.0 5.0 0.00 0.00 0.00 48 1017.8
20260507185635 79 320 0.0 2.0 0.00 0.00 0.00 48 1017.8
20260507185347 79 30 0.0 2.0 0.00 0.00 0.00 49 1018.0
20260507184624 78 322 0.0 2.0 0.00 0.00 0.00 48 1018.1
20260507184116 78 15 1.0 4.0 0.00 0.00 0.00 49 1018.1
20260507184059 77 324 1.0 4.0 0.00 0.00 0.00 50 1018.2
20260507183321 77 327 0.0 3.0 0.00 0.00 0.00 50 1018.2
20260507182601 76 325 0.0 4.0 0.00 0.00 0.00 51 1018.1
20260507182319 76 320 0.0 4.0 0.00 0.00 0.00 53 1018.1
20260507181547 75 34 0.0 2.0 0.00 0.00 0.00 56 1018.0
20260507181258 74 324 0.0 2.0 0.00 0.00 0.00 56 1018.1
20260507180542 74 329 0.0 2.0 0.00 0.00 0.00 56 1018.2
20260507180244 73 326 0.0 2.0 0.00 0.00 0.00 57 1018.1
20260507175744 73 0 0.0 2.0 0.00 0.00 0.00 59 1018.2
20260507175024 72 343 1.0 2.0 0.00 0.00 0.00 60 1018.2
20260507174512 71 319 0.0 2.0 0.00 0.00 0.00 61 1018.1
20260507174004 71 18 0.0 2.0 0.00 0.00 0.00 61 1018.0
20260507173459 70 0 0.0 2.0 0.00 0.00 0.00 62 1018.1
20260507173220 70 317 0.0 2.0 0.00 0.00 0.00 63 1018.2
20260507172446 69 336 1.0 4.0 0.00 0.00 0.00 64 1018.2
20260507171942 68 46 1.0 4.0 0.00 0.00 0.00 65 1018.2
20260507171436 68 340 1.0 2.0 0.00 0.00 0.00 66 1018.2
20260507170925 67 42 1.0 4.0 0.00 0.00 0.00 67 1018.1
20260507170424 66 338 1.0 4.0 0.00 0.00 0.00 68 1018.2
20260507165916 66 20 1.0 4.0 0.00 0.00 0.00 69 1018.1
20260507165412 66 338 0.0 2.0 0.00 0.00 0.00 70 1018.2
20260507164900 65 329 0.0 3.0 0.00 0.00 0.00 70 1018.3
20260507164358 64 14 0.0 3.0 0.00 0.00 0.00 71 1018.3
20260507163853 64 325 0.0 2.0 0.00 0.00 0.00 73 1018.3
20260507163347 63 355 0.0 2.0 0.00 0.00 0.00 74 1018.2
20260507162841 62 332 1.0 4.0 0.00 0.00 0.00 74 1018.2
20260507162818 62 32 0.0 4.0 0.00 0.00 0.00 75 1018.1
20260507161823 61 24 0.0 4.0 0.00 0.00 0.00 77 1018.1
20260507161544 60 341 0.0 4.0 0.00 0.00 0.00 78 1018.1
20260507160816 60 347 0.0 2.0 0.00 0.00 0.00 81 1018.0
20260507160315 59 346 0.0 2.0 0.00 0.00 0.00 82 1018.1
20260507155815 58 36 0.0 2.0 0.00 0.00 0.00 83 1018.0
20260507155309 58 333 0.0 2.0 0.00 0.00 0.00 83 1018.0
20260507154803 57 355 0.0 2.0 0.00 0.00 0.00 84 1017.8
20260507154302 57 19 0.0 2.0 0.00 0.00 0.00 85 1017.8
20260507153755 56 9 0.0 2.0 0.00 0.00 0.00 87 1018.0
20260507153242 55 9 0.0 1.0 0.00 0.00 0.00 87 1017.8
20260507152726 54 355 0.0 2.0 0.00 0.00 0.00 88 1017.8
20260507152222 54 22 0.0 2.0 0.00 0.00 0.00 89 1017.8
20260507151719 53 355 0.0 2.0 0.00 0.00 0.00 91 1017.7
20260507151217 53 351 0.0 2.0 0.00 0.00 0.00 91 1017.7
20260507150714 52 355 0.0 0.0 0.00 0.00 0.00 92 1017.8
20260507150213 52 317 0.0 0.0 0.00 0.00 0.00 92 1017.7
20260507145648 51 315 0.0 0.0 0.00 0.00 0.00 92 1017.7
20260507145110 51 315 0.0 0.0 0.00 0.00 0.00 92 1017.6
20260507144608 51 313 0.0 0.0 0.00 0.00 0.00 92 1017.6
20260507144048 51 304 0.0 0.0 0.00 0.00 0.00 92 1017.7
20260507143542 51 260 0.0 0.0 0.00 0.00 0.00 92 1017.7
20260507143041 51 260 0.0 0.0 0.00 0.00 0.00 92 1017.8
20260507142526 51 258 0.0 0.0 0.00 0.00 0.00 92 1017.7
20260507142023 51 244 0.0 0.0 0.00 0.00 0.00 92 1017.7
20260507141519 51 234 0.0 0.0 0.00 0.00 0.00 92 1017.7
20260507141014 51 234 0.0 0.0 0.00 0.00 0.00 92 1017.7
20260507140513 51 234 0.0 0.0 0.00 0.00 0.00 91 1017.8
20260507140012 51 231 0.0 0.0 0.00 0.00 0.00 91 1017.8
20260507135506 50 230 0.0 0.0 0.00 0.00 0.00 92 1017.7
20260507135005 49 229 0.0 0.0 0.00 0.00 0.00 91 1017.4
20260507134503 49 225 0.0 0.0 0.00 0.00 0.00 91 1017.4
20260507133947 49 225 0.0 0.0 0.00 0.00 0.00 91 1017.3
20260507133439 49 225 0.0 0.0 0.00 0.00 0.00 91 1017.3
20260507132921 49 225 0.0 0.0 0.00 0.00 0.00 91 1017.3
20260507132642 50 225 0.0 0.0 0.00 0.00 0.00 91 1017.3
20260507131918 50 225 0.0 0.0 0.00 0.00 0.00 91 1017.3
20260507131410 50 225 0.0 0.0 0.00 0.00 0.00 91 1017.3
20260507131118 50 225 0.0 0.0 0.00 0.00 0.00 91 1017.3
20260507130355 50 225 0.0 0.0 0.00 0.00 0.00 91 1017.3
20260507125848 50 225 0.0 0.0 0.00 0.00 0.00 91 1017.2
20260507125327 50 225 0.0 0.0 0.00 0.00 0.00 91 1017.3
20260507124818 50 225 0.0 0.0 0.00 0.00 0.00 91 1017.2
20260507124308 50 225 0.0 0.0 0.00 0.00 0.00 90 1017.3
20260507123807 50 225 0.0 0.0 0.00 0.00 0.00 90 1017.3
20260507123258 51 225 0.0 0.0 0.00 0.00 0.00 90 1017.4
20260507122736 51 225 0.0 0.0 0.00 0.00 0.00 90 1017.3